Weather History for Garden City, KS

Change the Weather History Date:

Monday, January 6, 2014

  Actual Average Record
Temperature  
Mean Temperature 5 °F 31 °F  
Max Temperature 23 °F 44 °F 68 °F (1965)
Min Temperature -13 °F 18 °F -18 °F (1971)
Degree Days  
Heating Degree Days 60 34  
Month to date heating degree days 254 204  
Since 1 July heating degree days 2375 2327  
Cooling Degree Days 0 0  
Month to date cooling degree days 0 0  
Year to date cooling degree days 0 0  
Moisture  
Dew Point -1 °F    
Average Humidity 73    
Maximum Humidity 90    
Minimum Humidity 56    
Precipitation  
Precipitation 0.00 in 0.01 in 0.24 in (1988)
Month to date precipitation 0.01 0.06  
Year to date precipitation 0.01 0.06  
Sea Level Pressure  
Sea Level Pressure 30.56 in    
Wind  
Wind Speed 11 mph (West)    
Max Wind Speed 21 mph    
Max Gust Speed 23 mph    
Visibility 10 miles    
Events      
T = Trace of Precipitation, MM = Missing Value Source: NWS Daily Summary

Daily Weather History Graph

Daily Weather History Graph

Search for Another Location

Airport:

Trip Planner

Search our weather history database for the weather conditions in past years. The results will help you decide how hot, cold, wet, or windy it might be!

Date:

Astronomy

Jan. 06, 2014 Rise Set
Actual Time 7:59 AM CST 5:38 PM CST
Civil Twilight 7:29 AM CST 6:07 PM CST
Nautical Twilight 6:57 AM CST 6:40 PM CST
Astronomical Twilight 6:25 AM CST 7:12 PM CST
Moon 11:22 AM CST (1/6) No Moon Set
Length of Visible Light 10h 38m
Length of Day
9h 39m
Waxing Crescent, 35% of the Moon is Illuminated
Jan 6
Waxing Crescent
Jan 7
First Quarter
Jan 15
Full
Jan 23
Last Quarter
Jan 30
New

Hourly Weather History & Observations

Time (CST) Temp. Windchill Dew Point Humidity Pressure Visibility Wind Dir Wind Speed Gust Speed Precip Events Conditions
12:54 AM 1.9 °F -18.7 °F -11.0 °F 55% 30.66 in 10.0 mi North 18.4 mph - N/A   Partly Cloudy
1:54 AM -2.0 °F -19.6 °F -13.0 °F 60% 30.66 in 10.0 mi North 11.5 mph - N/A   Clear
2:54 AM -2.9 °F -19.8 °F -11.0 °F 68% 30.65 in 10.0 mi NW 10.4 mph - N/A   Clear
3:54 AM -7.1 °F -23.9 °F -15.0 °F 68% 30.66 in 10.0 mi WNW 9.2 mph - N/A   Clear
4:54 AM -9.0 °F -27.4 °F -14.1 °F 79% 30.65 in 10.0 mi NW 10.4 mph - N/A   Clear
5:54 AM -11.9 °F -28.7 °F -17.0 °F 78% 30.66 in 10.0 mi WNW 8.1 mph - N/A   Clear
6:54 AM -9.0 °F -26.4 °F -14.1 °F 79% 30.66 in 10.0 mi WNW 9.2 mph - N/A   Clear
7:54 AM -11.9 °F -33.0 °F -17.0 °F 78% 30.67 in 10.0 mi West 12.7 mph - N/A   Clear
8:54 AM -7.1 °F -21.4 °F -9.9 °F 87% 30.67 in 10.0 mi West 6.9 mph - N/A   Clear
9:54 AM -0.9 °F -16.4 °F -6.0 °F 79% 30.66 in 10.0 mi West 9.2 mph - N/A   Clear
10:54 AM 5.0 °F -12.3 °F -0.9 °F 76% 30.65 in 10.0 mi West 13.8 mph - N/A   Clear
11:54 AM 10.0 °F -6.5 °F 1.9 °F 70% 30.59 in 10.0 mi West 15.0 mph - N/A   Clear
12:54 PM 15.1 °F 0.5 °F 6.1 °F 68% 30.54 in 10.0 mi WSW 13.8 mph - N/A   Clear
1:54 PM 19.9 °F 6.7 °F 7.0 °F 57% 30.51 in 10.0 mi West 13.8 mph - N/A   Clear
2:54 PM 21.9 °F 9.2 °F 10.0 °F 60% 30.50 in 10.0 mi West 13.8 mph - N/A   Clear
3:54 PM 21.9 °F 11.0 °F 10.9 °F 63% 30.49 in 10.0 mi West 10.4 mph - N/A   Clear
4:54 PM 21.9 °F 13.4 °F 12.9 °F 68% 30.50 in 10.0 mi WSW 6.9 mph - N/A   Clear
5:54 PM 19.0 °F 9.0 °F 10.9 °F 71% 30.49 in 10.0 mi West 8.1 mph - N/A   Clear
6:54 PM 14.0 °F 3.9 °F 9.0 °F 80% 30.48 in 10.0 mi WSW 6.9 mph - N/A   Clear
7:54 PM 12.9 °F 0.7 °F 8.1 °F 81% 30.49 in 10.0 mi West 9.2 mph - N/A   Clear
8:54 PM 14.0 °F 2.9 °F 8.1 °F 77% 30.48 in 10.0 mi West 8.1 mph - N/A   Clear
9:54 PM 12.9 °F 1.6 °F 7.0 °F 77% 30.43 in 10.0 mi WSW 8.1 mph - N/A   Clear
10:54 PM 16.0 °F 3.6 °F 9.0 °F 74% 30.38 in 10.0 mi WSW 10.4 mph - N/A   Clear
11:54 PM 16.0 °F 4.4 °F 9.0 °F 74% 30.35 in 10.0 mi SW 9.2 mph - N/A   Clear